CST,Max TemperatureF,Mean TemperatureF,Min TemperatureF,Max Dew PointF,MeanDew PointF,Min DewpointF,Max Humidity, Mean Humidity, Min Humidity, Max Sea Level PressureIn, Mean Sea Level PressureIn, Min Sea Level PressureIn, Max VisibilityMiles, Mean VisibilityMiles, Min VisibilityMiles, Max Wind SpeedMPH, Mean Wind SpeedMPH, Max Gust SpeedMPH,PrecipitationIn, CloudCover, Events, WindDirDegrees
2012-12-1,73,53,32,27,22,19,64,30,13,30.07,29.98,29.94,10,10,4,38,20,41,0.00,0,,302
2012-12-2,75,52,28,27,20,14,74,37,11,30.08,30.00,29.91,10,9,3,26,11,40,0.00,0,,262
2012-12-3,71,56,42,32,23,16,61,30,16,30.16,29.97,29.85,10,10,7,34,19,47,0.00,0,,333
2012-12-4,59,44,30,32,25,18,87,52,25,30.42,30.32,30.17,10,10,5,22,8,29,0.00,0,,356
2012-12-5,69,51,33,30,24,18,60,40,20,30.32,30.13,29.91,10,10,7,22,11,30,0.00,0,,209
2012-12-6,68,52,35,32,30,23,75,44,26,29.95,29.91,29.86,10,10,7,28,15,36,0.00,0,,26
2012-12-7,68,49,30,30,27,23,80,58,24,29.94,29.88,29.78,10,10,10,17,7,31,0.00,0,,323
2012-12-8,64,46,28,36,27,21,100,58,22,29.93,29.83,29.72,10,8,0,30,13,38,0.00,1,Fog,241
2012-12-9,46,34,21,34,18,7,87,54,31,30.22,30.02,29.75,10,10,0,32,19,46,0.00,1,Snow,14
2012-12-10,37,22,6,18,11,1,86,64,36,30.22,30.06,29.93,10,10,10,134,22,132,0.00,0,,280
2012-12-11,44,28,12,18,11,9,86,56,25,30.09,30.03,29.95,10,10,7,24,6,31,0.00,0,,280
2012-12-12,60,40,21,14,12,9,63,36,15,30.07,30.02,29.96,10,10,5,,,,0.00,0,,-1
2012-12-13,68,46,23,36,16,9,76,38,13,30.13,30.06,30.00,10,10,10,,,,0.00,0,,-1
2012-12-14,62,52,41,46,39,30,93,75,52,30.04,29.82,29.56,10,10,2,,,,0.07,4,Rain-Thunderstorm,-1
2012-12-15,55,44,33,30,27,23,81,54,29,29.87,29.81,29.76,10,10,10,,,,0.00,0,,-1
2012-12-16,55,44,33,30,23,10,75,49,18,29.86,29.79,29.72,10,10,10,,,,0.00,0,,-1
2012-12-17,62,42,23,27,19,14,74,47,17,29.90,29.85,29.78,10,10,10,,,,0.00,0,,-1
2012-12-18,60,44,28,28,24,19,80,47,20,29.88,29.80,29.73,10,10,7,,,,0.00,0,,-1
2012-12-19,62,45,26,30,22,10,70,47,18,30.17,29.73,29.53,10,9,3,,,,0.00,2,,-1
2012-12-20,50,32,14,10,3,-4,67,36,12,30.40,30.33,30.17,10,10,10,,,,0.00,0,,-1
2012-12-21,62,42,21,5,0,-8,43,21,6,30.36,30.27,30.18,10,10,10,,,,0.00,0,,-1
2012-12-22,59,41,23,10,5,1,47,26,12,30.19,30.04,29.95,10,10,4,,,,0.00,0,,-1
2012-12-23,68,44,21,19,9,3,59,34,8,30.02,29.94,29.86,10,10,5,,,,0.00,1,,-1
2012-12-24,51,37,23,21,14,7,60,41,24,30.02,29.85,29.68,10,10,5,,,,0.00,0,,-1
2012-12-25,30,26,21,19,18,14,74,69,64,30.22,30.01,29.69,10,7,0,,,,0.00,5,Snow,-1
2012-12-26,,,,,,,,,,30.20,30.03,29.83,10,10,10,,,,0.00,0,,-1
2012-12-27,41,41,37,21,20,19,48,46,45,29.88,29.77,29.70,10,10,10,,,,0.00,0,,-1
2012-12-28,,,,,,,,,,30.18,30.02,29.88,10,10,10,,,,0.00,1,,-1
2012-12-29,46,44,41,21,16,14,39,32,27,30.35,30.26,30.18,10,10,10,,,,0.00,0,,-1
2012-12-30,41,32,23,30,19,14,87,59,39,30.22,30.09,29.99,10,9,3,,,,0.03,1,Rain,-1
2012-12-31,33,28,23,32,28,19,100,89,75,30.07,29.96,29.88,10,8,2,,,,0.03,7,,-1